Wind_Speed
98 100 101 102 103 104 106 107 108 109 111 112 113 115 116 117 118 119 120 121 122 123 125 126 127 128 129 131 132 133 134 135 136 137 137 137 137 137 136 135 134 133 132 130 128 125 122 117 112 106 101 97 93 91 89 87 85 83 80 77 74 71 68 65 62 58 55 53 50 47 45 43 41 39 37 36 34 33 32 31 30 30 29 29 28 28
100 101 103 104 105 106 107 109 110 111 112 113 115 116 117 118 120 121 122 123 124 125 126 127 128 129 130 132 133 134 135 136 137 138 138 138 137 137 136 135 134 133 131 130 127 124 120 115 109 103 99 95 92 90 88 86 84 81 79 75 72 69 65 62 59 56 53 50 48 45 43 41 39 37 36 34 33 31 30 30 29 29 28 28 28 27
101 103 104 106 107 108 109 111 112 113 114 115 116 117 118 119 121 122 123 124 125 126 127 128 129 130 132 133 134 135 137 138 138 139 138 138 137 137 136 135 134 133 131 129 126 122 117 112 106 101 97 94 91 89 87 85 83 80 77 73 70 66 63 59 56 53 50 48 45 43 41 39 37 35 34 33 31 30 29 29 28 28 27 27 27 26
103 105 106 108 109 110 111 112 113 115 116 117 118 119 120 121 122 123 124 125 126 127 128 129 131 132 133 135 136 137 138 139 139 139 139 138 138 137 136 135 134 132 130 128 124 120 115 109 103 99 95 92 90 88 86 84 81 78 75 71 67 64 60 57 53 51 48 46 43 41 39 37 36 34 33 31 30 29 28 28 27 27 27 27 26 26
105 106 108 109 111 112 113 114 115 116 117 118 119 120 121 122 123 124 125 126 127 129 130 131 132 133 135 136 137 138 139 139 139 139 139 138 138 137 136 135 134 132 129 126 122 117 112 106 101 97 94 91 89 87 85 82 79 76 72 68 65 61 58 54 51 48 46 43 41 39 37 36 34 33 31 30 29 28 27 27 26 26 26 26 26 25
107 109 110 111 113 114 115 116 117 118 119 120 121 122 122 123 124 125 127 128 129 130 131 133 134 135 136 137 138 139 140 140 140 139 139 138 138 137 136 135 133 131 128 125 120 115 109 103 99 95 93 90 88 86 83 80 77 73 69 66 62 59 55 52 49 46 44 41 39 37 36 34 33 31 30 29 28 27 26 26 26 26 26 25 25 25
110 111 112 113 115 116 117 118 118 119 120 121 122 123 124 125 126 127 128 129 131 132 133 134 136 137 138 139 140 140 140 140 140 140 139 138 138 137 136 135 133 130 127 123 117 112 106 101 97 94 92 89 87 84 81 78 74 70 67 63 59 56 53 50 47 44 42 39 37 36 34 33 32 30 29 28 27 26 25 25 25 25 25 25 25 25
112 113 114 115 116 117 118 119 120 121 121 122 123 125 126 127 128 129 130 131 133 134 135 136 138 139 140 140 141 141 141 140 140 140 139 138 138 137 136 134 132 129 125 120 115 109 103 99 96 93 91 88 86 83 79 76 72 68 64 60 57 54 51 48 45 42 40 38 36 34 33 32 30 29 28 27 26 25 25 25 25 25 25 25 25 24
114 116 117 117 118 119 120 121 122 123 123 124 125 126 127 129 130 131 132 134 135 136 137 138 139 140 141 141 141 141 141 141 140 140 139 139 138 137 136 134 131 127 123 118 112 106 101 97 94 92 90 87 84 81 77 73 69 65 61 58 54 51 48 46 43 41 38 36 35 33 32 31 29 28 27 26 25 25 24 24 24 24 25 25 24 24
116 117 118 119 120 121 121 122 124 125 125 126 127 128 129 130 132 133 134 136 137 138 139 140 141 141 142 142 142 142 141 141 140 140 139 139 138 137 135 132 129 125 120 115 109 103 99 96 93 91 88 86 82 79 74 70 66 62 58 55 52 49 46 44 41 39 37 35 33 32 31 29 28 27 26 25 25 24 24 24 24 24 24 24 24 24
118 119 120 121 122 123 123 124 125 126 127 128 129 130 131 133 134 135 136 138 139 140 141 141 142 143 143 143 142 142 141 141 141 140 139 138 137 136 134 131 127 123 117 112 106 101 97 94 92 89 87 84 80 76 71 67 63 59 56 53 50 47 44 42 40 38 36 34 32 31 30 28 27 26 25 25 24 24 24 24 24 24 24 24 24 24
120 121 122 123 124 125 126 127 128 129 130 130 132 133 134 135 136 137 138 139 141 142 142 143 143 143 143 143 143 142 142 141 141 140 139 138 137 135 133 129 125 120 114 108 103 99 96 93 91 88 85 81 77 73 68 64 60 57 54 51 48 45 43 40 38 36 34 33 31 30 29 28 27 26 25 24 24 24 24 24 24 24 24 24 24 24
122 123 124 125 126 127 128 129 130 131 132 133 134 135 136 137 138 139 140 141 142 143 143 144 144 144 144 143 143 142 142 141 141 140 139 138 136 134 131 127 122 117 111 105 101 97 94 92 89 86 83 79 75 70 66 62 58 55 52 49 46 44 41 39 36 35 33 32 30 29 28 27 26 25 24 24 24 24 24 24 24 24 24 25 24 24
124 125 126 127 128 129 130 131 132 133 134 135 136 137 137 138 139 141 142 143 143 144 144 145 145 145 144 144 143 143 142 142 141 140 139 137 135 132 129 124 119 113 108 102 98 95 92 90 87 84 80 76 72 67 63 59 56 53 50 47 44 42 39 37 35 33 32 31 29 28 27 26 25 25 24 24 24 24 24 24 24 24 25 25 25 24
126 127 128 129 130 132 132 133 134 135 136 137 137 138 139 140 141 142 143 144 145 145 145 146 146 146 145 144 143 143 142 142 141 140 138 136 134 130 126 121 116 110 104 100 96 93 91 88 85 82 78 73 69 65 61 57 54 51 48 45 43 40 38 36 34 32 31 30 28 27 26 25 25 24 24 24 24 24 24 24 24 25 25 25 25 25
128 129 130 131 132 133 134 135 136 137 138 138 139 140 141 142 143 144 144 145 145 146 146 147 147 147 146 145 144 143 142 141 140 139 137 135 132 127 123 118 112 107 102 98 94 92 89 86 83 79 75 70 66 62 58 55 52 49 46 44 41 39 36 34 33 31 30 29 28 27 26 25 24 24 24 24 24 24 24 24 25 25 25 25 25 25
130 131 132 133 134 135 136 137 138 138 139 140 141 142 142 143 144 145 145 146 146 147 147 148 148 147 147 146 145 143 142 141 140 138 136 133 129 125 120 114 109 104 99 96 93 90 87 84 80 76 71 67 63 60 56 53 50 47 45 42 40 37 35 33 32 30 29 28 27 26 25 25 24 24 24 24 24 24 24 25 25 25 26 26 25 25
132 133 134 135 136 137 138 139 139 140 141 142 143 143 144 145 145 146 146 147 147 148 148 148 148 148 147 146 145 143 142 140 139 137 134 131 126 121 116 110 105 101 97 94 91 88 85 81 77 73 68 64 61 57 55 52 49 46 43 41 38 36 34 32 31 29 29 28 27 26 25 24 24 24 24 24 24 25 25 25 26 26 26 26 26 25
134 135 136 137 137 138 139 140 141 142 142 143 144 144 145 146 146 147 147 148 148 148 148 148 148 148 147 146 145 143 142 140 137 135 132 128 123 118 112 107 102 98 94 91 89 85 82 78 74 69 65 62 58 55 53 50 47 44 42 39 37 35 33 31 30 29 28 27 26 26 25 25 24 24 25 25 25 25 25 26 26 26 26 26 26 26
136 137 137 138 139 140 141 142 142 143 143 144 145 145 146 147 148 148 148 149 149 149 149 148 148 148 147 145 144 142 141 138 135 132 129 125 120 114 108 103 99 95 92 89 86 83 79 74 70 66 62 59 56 54 51 49 46 43 41 38 36 34 32 30 29 28 28 27 26 25 25 25 25 25 25 25 25 26 26 26 27 27 27 27 26 26
137 138 139 140 140 141 142 143 144 144 145 145 146 146 147 148 149 149 149 149 149 149 149 148 148 147 146 145 143 141 139 136 133 129 125 121 116 110 104 100 96 93 90 87 84 80 75 71 67 63 60 57 54 52 50 47 45 42 39 37 35 33 31 30 28 28 27 27 26 25 25 25 25 25 25 26 26 26 26 27 27 27 27 27 27 26
138 139 140 141 142 142 143 144 145 145 146 146 147 147 148 149 149 150 150 150 150 149 149 148 147 146 145 143 142 139 137 133 129 125 121 117 112 106 101 97 94 91 88 84 81 77 72 68 64 60 57 55 53 51 48 46 43 41 38 36 34 32 31 29 28 28 27 26 26 26 26 26 26 26 26 26 27 27 27 27 28 28 28 27 27 26
140 141 142 142 143 144 144 145 146 146 147 148 148 149 149 149 150 150 150 150 150 149 148 148 147 146 144 142 140 137 134 130 126 121 117 113 108 103 98 94 91 88 85 81 78 73 69 65 61 58 55 53 51 49 47 44 42 40 37 35 33 32 30 29 28 27 27 27 26 26 26 26 26 27 27 27 27 27 28 28 28 28 28 28 27 27
141 142 143 143 144 145 145 146 147 148 148 149 149 150 150 150 150 150 150 150 149 149 148 147 146 145 143 141 138 134 131 126 122 117 112 108 104 100 96 92 89 86 82 78 74 70 66 62 58 56 53 51 49 47 45 43 41 39 37 35 33 31 30 29 28 28 27 27 27 27 27 27 27 27 28 28 28 28 28 28 28 29 28 28 28 27
142 143 144 145 145 146 147 147 148 149 150 150 150 151 151 151 151 151 151 150 149 149 148 147 145 144 141 138 135 131 127 122 117 112 108 104 101 97 93 90 86 83 79 75 71 66 62 59 56 54 51 49 48 46 44 42 40 38 36 34 32 31 30 29 29 28 28 28 28 28 28 28 28 28 28 29 29 29 29 29 29 29 29 29 28 28
144 144 145 146 147 148 148 149 150 150 151 151 151 151 151 151 151 150 150 150 149 148 147 146 144 142 139 135 131 127 122 117 113 108 104 100 97 94 91 87 84 80 76 72 67 63 60 57 54 52 50 48 46 45 43 41 39 37 35 34 32 31 30 29 29 29 28 28 28 28 29 29 29 29 29 29 30 30 30 30 30 30 29 29 29 28
146 146 147 148 149 149 150 150 151 151 152 152 152 151 151 151 150 150 150 149 148 147 145 144 142 139 136 132 127 123 118 113 108 104 100 97 94 91 88 85 81 77 73 68 64 60 57 55 53 51 49 47 45 43 42 40 38 37 35 33 32 31 30 30 29 29 29 29 29 29 30 30 30 30 30 30 30 30 30 31 30 30 30 30 29 29
147 148 149 150 150 151 151 152 152 152 152 152 152 152 151 150 150 149 149 148 147 145 143 141 139 135 132 128 123 118 113 108 104 100 96 93 91 89 86 82 78 74 69 65 61 58 55 53 51 49 47 46 44 42 41 39 37 36 34 33 32 31 31 30 30 30 30 30 30 31 31 31 31 31 31 31 31 31 31 31 31 31 31 31 30 30
149 150 151 151 152 152 152 152 152 152 152 152 152 152 151 150 149 148 147 146 145 143 141 138 135 131 127 123 118 113 109 104 100 96 93 91 88 86 83 79 75 71 66 62 58 56 53 51 49 48 46 44 43 41 40 38 37 35 34 33 32 31 31 31 31 31 31 31 31 32 32 32 32 32 32 32 32 32 32 32 32 32 32 31 31 30
151 152 152 152 153 153 153 153 153 153 152 152 152 152 151 150 148 147 146 144 142 139 137 134 130 126 122 118 113 109 105 101 97 93 91 88 86 83 80 76 72 67 63 59 56 54 52 50 48 46 45 43 42 41 39 38 36 35 34 33 32 31 31 31 31 31 32 32 32 33 33 33 33 33 33 33 33 33 33 33 33 33 33 32 32 31
152 153 153 153 153 153 153 153 153 153 153 152 152 151 150 149 147 146 144 141 138 135 132 128 125 121 117 113 109 105 102 98 94 91 88 85 83 80 77 72 68 64 60 56 53 52 50 49 47 45 44 43 41 40 38 37 36 34 33 33 32 32 31 31 32 32 32 33 33 34 34 34 34 34 34 34 34 34 34 34 34 34 34 33 33 32
153 153 153 154 154 154 154 154 153 153 153 152 152 150 149 147 145 143 140 137 134 130 127 123 119 115 112 108 104 101 98 95 92 89 86 83 80 77 74 69 65 61 58 55 52 50 49 47 46 44 43 42 41 39 38 36 35 34 33 33 32 32 32 32 32 33 33 34 34 35 35 35 35 36 36 35 35 35 35 35 35 35 35 34 34 33
154 154 154 154 155 154 154 154 154 153 152 151 150 149 147 145 143 140 137 133 129 125 121 117 114 110 107 104 101 98 95 92 90 87 84 80 77 74 70 66 62 59 56 54 51 50 48 46 45 44 42 41 40 39 37 36 35 34 33 33 32 32 32 32 33 33 34 35 35 36 36 36 37 37 37 37 36 36 36 36 36 36 36 35 35 35
155 155 155 155 155 155 154 154 153 152 151 150 148 146 144 141 138 135 132 128 124 120 116 112 109 106 103 100 97 95 93 90 87 85 82 78 74 71 67 63 60 57 55 53 51 49 47 46 44 43 42 41 40 39 37 36 35 34 33 33 33 33 33 33 33 34 35 35 36 37 37 38 38 38 38 38 38 38 37 37 37 37 37 37 36 36
156 156 156 156 155 155 154 153 152 150 149 147 145 143 140 137 133 130 126 122 119 115 111 108 104 101 99 96 94 92 90 87 85 82 79 75 71 68 64 61 58 56 54 52 51 49 47 45 44 42 41 41 40 39 37 36 35 34 33 33 33 33 33 33 34 35 35 36 37 37 38 38 39 39 39 39 39 39 39 39 38 38 38 38 38 37
157 157 156 156 155 154 152 151 149 148 146 143 141 138 135 131 128 124 120 117 113 110 107 104 101 98 96 93 91 89 87 85 82 79 76 72 68 65 62 59 57 55 53 52 51 49 47 46 44 42 41 40 39 39 37 36 35 34 34 34 33 33 34 34 35 35 36 37 38 38 39 39 40 40 40 40 40 40 40 40 40 39 39 39 39 39
157 156 155 154 153 151 150 148 146 144 141 139 136 133 129 126 122 119 115 112 109 105 103 100 98 95 93 91 89 87 84 82 79 76 73 69 66 62 60 58 56 55 53 52 51 49 48 46 44 43 41 40 39 38 38 36 35 35 34 34 34 34 34 35 35 36 37 38 38 39 40 40 41 41 41 41 41 41 41 41 41 41 41 40 40 40
156 155 154 152 150 148 146 144 142 139 136 133 130 127 123 120 117 113 110 107 104 101 99 97 95 93 91 89 87 85 82 79 76 73 69 66 63 61 59 57 56 54 53 52 51 49 48 46 45 43 42 40 39 38 38 37 36 35 35 35 34 35 35 35 36 36 37 38 39 40 40 41 41 42 42 42 42 43 42 42 42 42 42 42 42 41
154 152 150 148 146 144 141 139 136 133 130 127 124 121 118 114 111 108 105 103 100 98 96 94 92 90 89 87 85 83 80 77 73 70 66 64 61 59 58 56 55 54 53 52 51 50 48 47 45 44 42 41 40 39 38 37 37 36 35 35 35 35 35 36 36 37 38 39 39 40 41 42 42 43 43 43 44 44 44 44 44 43 43 43 43 43
150 148 146 144 141 139 136 133 130 127 124 121 118 115 112 109 107 104 101 99 97 95 93 91 90 88 87 85 83 80 77 74 70 67 64 62 60 58 57 56 55 54 53 52 51 50 49 47 46 45 43 42 41 40 39 38 37 36 36 36 36 36 36 36 37 38 38 39 40 41 42 43 43 44 44 44 45 45 45 45 45 45 45 44 44 44
145 143 140 138 135 133 130 127 124 122 119 116 113 110 107 105 102 100 97 95 94 92 91 89 88 86 85 82 80 77 74 71 68 65 63 60 59 57 56 56 55 54 53 52 51 50 49 48 47 46 44 43 42 41 40 39 38 37 37 36 36 36 36 37 37 38 39 40 41 41 42 43 44 44 45 45 46 46 46 46 46 46 46 46 46 46
139 137 134 132 129 127 124 121 119 116 113 111 108 105 103 100 98 96 94 92 91 90 88 87 85 84 82 79 77 74 71 68 66 64 62 60 59 57 56 55 54 54 53 52 51 51 49 48 47 46 45 44 43 42 41 40 39 38 38 37 37 37 37 37 38 38 39 40 41 42 43 44 45 45 46 46 47 47 47 47 48 48 48 47 47 47
133 131 128 126 123 121 118 116 113 111 108 106 103 101 99 97 95 93 91 90 88 87 86 84 82 80 78 76 73 71 69 66 65 63 62 60 59 58 56 55 54 53 53 52 51 51 50 49 48 47 46 45 44 43 42 41 40 39 38 38 37 37 37 38 38 38 39 40 41 42 43 44 45 46 47 47 48 48 48 48 49 49 49 49 49 49
127 124 122 120 117 115 113 110 108 106 104 102 100 98 96 94 92 90 89 88 86 85 83 82 79 77 75 73 70 68 67 65 64 63 62 60 59 58 57 56 54 53 52 52 51 51 50 49 49 48 47 46 45 44 43 42 41 40 40 39 38 38 38 38 38 38 39 40 41 42 43 44 45 46 47 48 48 49 49 49 50 50 50 50 50 50
120 118 116 114 112 110 108 106 104 102 100 98 96 95 93 91 90 88 87 85 84 82 80 78 76 74 72 70 68 66 65 64 63 62 61 60 59 58 57 56 55 54 53 52 51 50 50 49 49 48 48 47 46 46 45 44 43 42 41 40 39 39 39 39 38 39 39 40 41 42 42 44 45 46 47 48 49 49 49 50 50 50 51 51 51 51
114 112 110 109 107 105 103 102 100 98 96 95 93 92 91 89 88 86 84 83 81 79 78 75 73 71 69 68 66 65 64 63 63 62 61 60 59 58 57 56 55 54 53 52 51 50 50 49 49 49 48 48 47 47 46 45 44 43 43 42 41 40 40 40 39 39 39 40 41 41 42 43 44 46 47 48 48 49 49 50 50 51 51 51 52 52
109 107 105 104 102 101 99 98 96 95 94 92 91 90 88 87 85 84 82 80 78 76 75 72 70 68 67 66 65 64 63 63 62 62 61 60 59 58 57 56 55 54 53 52 52 51 50 49 49 49 48 48 48 48 47 46 45 45 44 43 43 42 42 41 41 40 40 40 41 41 42 43 44 45 46 47 48 49 49 50 50 51 51 51 52 52
104 102 101 100 98 97 96 95 94 92 91 90 89 88 86 84 83 81 79 78 76 74 72 70 68 67 66 65 64 63 63 62 62 61 61 60 59 58 57 56 55 54 53 53 52 51 51 50 49 49 48 48 48 48 48 47 47 46 46 45 44 44 43 43 42 41 41 41 41 42 42 43 44 45 46 47 48 49 49 50 50 50 51 51 52 52
100 99 97 96 95 94 93 92 91 90 89 88 87 85 84 82 80 78 76 75 73 72 70 68 67 66 65 65 64 63 63 62 62 61 60 60 59 58 57 56 55 54 53 53 52 52 51 51 50 49 49 48 48 48 48 48 48 47 47 46 46 46 45 45 44 43 43 42 42 42 43 43 44 45 46 47 48 49 50 50 50 51 51 51 52 52
97 96 95 93 93 92 91 90 89 88 87 85 84 82 81 79 77 75 74 72 71 70 69 67 66 65 65 64 64 63 62 62 61 61 60 59 59 58 57 56 55 54 53 53 52 52 52 51 51 50 49 49 48 48 48 48 48 48 48 48 48 47 47 46 46 45 44 44 44 44 44 44 44 45 46 47 48 49 50 51 51 51 51 51 52 52
94 93 92 91 90 89 88 87 86 85 84 83 81 80 78 76 75 73 72 71 70 69 68 67 66 65 64 64 63 63 62 61 61 60 60 59 58 58 57 56 55 54 54 53 52 52 52 51 51 51 50 49 49 49 49 49 49 49 49 49 49 49 49 48 48 47 46 46 46 45 45 45 45 46 47 48 49 50 51 51 52 52 52 52 52 53
Wind_Direction
295 296 297 298 299 299 300 301 302 303 304 305 305 306 307 307 308 308 309 310 310 311 312 313 314 315 315 316 316 317 317 318 318 318 319 319 320 321 321 322 322 323 323 323 323 324 324 323 323 323 322 322 322 322 322 321 321 321 320 319 318 316 315 314 312 311 309 308 306 305 303 301 300 298 296 294 292 290 288 286 284 282 281 279 278 277
296 296 297 298 299 300 300 301 302 303 304 304 305 306 306 307 307 308 309 310 310 311 312 313 314 314 315 315 316 316 317 317 317 318 318 319 320 320 321 322 322 322 323 323 323 323 323 323 323 322 322 322 322 322 322 321 321 320 319 318 317 316 314 313 311 310 308 307 305 304 302 300 298 296 294 292 290 288 286 284 282 280 279 277 277 276
296 296 297 298 299 300 300 301 302 303 303 304 305 305 306 307 307 308 309 309 310 311 312 313 313 314 314 315 315 316 316 317 317 317 318 319 320 320 321 321 322 322 323 323 323 323 323 323 322 322 322 322 322 322 322 321 320 320 319 318 316 315 313 312 310 309 307 306 304 302 301 298 296 294 292 290 288 286 284 282 280 278 277 276 275 274
295 296 297 298 299 299 300 301 302 302 303 304 304 305 306 306 307 308 309 309 310 311 311 312 313 313 314 314 315 315 316 316 317 317 318 319 319 320 321 321 322 322 323 323 323 323 323 322 322 322 322 322 322 322 321 321 320 319 318 317 315 314 312 311 309 308 306 305 303 301 299 297 295 292 290 288 286 284 282 279 277 276 275 274 273 273
295 296 297 298 299 299 300 301 302 302 303 304 304 305 306 306 307 308 308 309 310 311 311 312 312 313 313 314 314 315 315 316 316 317 318 319 319 320 321 321 322 322 322 323 323 323 322 322 322 322 322 322 322 322 321 320 319 318 317 316 314 313 311 310 308 307 305 303 301 299 297 295 293 291 289 286 284 282 279 277 275 273 273 272 272 272
295 296 297 298 299 299 300 301 302 302 303 304 304 305 306 306 307 308 308 309 310 310 311 311 312 312 313 313 314 314 315 316 316 317 318 318 319 320 321 321 322 322 322 323 323 322 322 322 322 322 322 322 322 321 321 320 319 317 316 315 313 312 310 309 307 306 304 302 300 298 295 293 291 289 287 285 282 279 277 275 273 271 271 270 270 270
295 296 297 298 299 299 300 301 302 302 303 304 304 305 305 306 307 307 308 309 309 310 310 311 311 312 312 313 314 314 315 315 316 317 318 318 319 320 320 321 322 322 322 322 322 322 322 322 322 322 322 322 321 321 320 319 318 316 315 313 312 311 309 308 306 305 303 301 298 296 294 291 289 287 285 283 280 277 274 272 271 269 269 269 269 269
296 296 297 298 299 300 300 301 302 302 303 304 304 305 305 306 306 307 308 308 309 309 310 311 311 312 312 313 313 314 315 315 316 317 318 318 319 320 320 321 321 322 322 322 322 322 322 322 322 322 322 321 321 320 320 318 317 315 314 312 311 310 308 307 305 303 302 299 297 294 292 290 287 285 283 280 277 275 272 270 269 268 268 268 268 269
296 297 298 298 299 300 301 301 302 302 303 303 304 305 305 306 306 307 307 308 308 309 310 310 311 311 312 312 313 314 314 315 316 317 318 318 319 320 320 321 321 322 322 322 322 322 321 321 321 321 321 321 321 320 319 317 316 314 313 311 310 309 307 305 304 302 300 298 295 293 290 288 286 283 281 278 275 272 270 268 267 266 266 267 267 268
296 297 298 298 299 300 300 301 301 302 302 303 304 304 305 305 306 306 307 307 308 309 309 310 310 311 312 312 313 314 315 315 316 317 318 318 319 320 320 321 321 321 322 322 321 321 321 321 321 321 321 320 320 319 318 316 315 313 312 310 309 307 306 304 303 301 298 296 293 291 288 286 284 281 278 276 273 270 268 266 265 265 265 266 266 267
296 297 298 298 299 299 300 301 301 301 302 303 303 304 304 305 305 306 307 307 308 308 309 310 310 311 312 312 313 314 315 315 316 317 318 318 319 320 320 321 321 321 321 321 321 321 321 321 321 321 320 320 319 318 317 315 314 312 311 309 308 306 305 303 301 299 296 294 291 289 286 284 281 279 276 273 270 268 266 264 264 264 264 265 266 267
296 297 297 298 298 299 299 300 300 301 301 302 303 303 304 304 305 306 306 307 307 308 309 309 310 311 311 312 313 314 315 315 316 317 317 318 319 320 320 321 321 321 321 321 321 321 321 321 321 320 320 319 318 317 316 314 313 311 310 308 307 305 304 302 300 297 295 292 289 287 284 282 279 276 273 270 268 265 264 263 262 263 264 264 265 266
295 296 297 297 298 298 299 300 300 301 301 302 302 303 304 304 305 305 306 307 307 308 309 309 310 311 311 312 313 314 315 315 316 317 317 318 319 319 320 320 321 321 320 320 320 320 320 320 320 319 319 318 317 316 314 313 312 310 309 308 306 305 303 300 298 296 293 290 288 285 282 279 277 274 271 268 265 263 262 261 261 262 263 264 264 265
295 296 296 297 297 298 298 299 300 300 301 301 302 303 303 304 305 305 306 306 307 308 309 309 310 311 311 312 313 314 314 315 316 317 317 318 319 319 320 320 320 320 320 320 320 320 320 320 319 319 318 317 316 314 313 312 311 309 308 307 305 303 302 299 297 294 291 288 286 283 280 277 274 271 268 265 263 261 260 260 260 261 262 263 264 265
295 295 296 297 297 298 298 299 299 300 301 301 302 302 303 304 304 305 306 306 307 308 309 309 310 311 311 312 313 314 314 315 316 316 317 318 318 319 319 320 320 320 320 320 320 320 320 319 318 318 317 316 314 313 312 311 310 309 307 306 304 303 300 298 295 292 289 286 284 281 278 274 271 268 266 263 261 259 259 259 259 260 261 262 263 264
294 295 296 296 297 297 298 298 299 300 300 301 302 302 303 304 304 305 306 306 307 308 308 309 310 310 311 312 313 314 314 315 316 316 317 318 318 319 319 319 319 319 319 319 319 319 319 318 317 316 315 314 313 312 311 310 309 308 307 305 304 302 299 297 294 291 288 284 282 278 275 272 269 266 263 261 259 258 258 258 258 259 261 262 263 264
294 295 295 296 297 297 298 298 299 300 300 301 302 302 303 304 304 305 306 306 307 308 308 309 309 310 311 312 313 314 314 315 316 316 317 318 318 318 319 319 319 319 319 319 319 318 318 317 316 315 314 313 312 311 310 309 308 307 306 304 303 301 298 295 292 289 286 283 279 276 273 269 266 263 261 259 258 257 257 257 258 259 260 262 263 264
294 295 295 296 297 297 298 298 299 300 300 301 302 302 303 303 304 305 305 306 307 307 308 309 309 310 311 311 312 313 314 315 315 316 317 317 318 318 318 318 318 318 318 318 318 318 317 316 315 314 313 312 311 310 309 309 308 307 305 303 302 300 297 294 291 287 284 281 277 274 270 267 263 261 259 257 256 256 256 257 258 259 260 261 262 263
294 295 295 296 297 297 298 298 299 300 300 301 301 302 303 303 304 304 305 306 306 307 308 308 309 310 310 311 312 313 314 315 315 316 316 317 317 317 317 318 318 318 318 317 317 317 316 315 313 312 311 310 310 309 308 308 307 306 304 303 301 298 296 292 289 286 282 279 275 272 268 264 261 258 257 256 255 255 256 256 257 259 260 261 262 263
294 295 295 296 296 297 298 298 299 299 300 301 301 302 302 303 304 304 305 306 306 307 307 308 309 310 310 311 312 313 314 314 315 315 316 316 317 317 317 317 317 317 317 317 316 316 315 313 312 311 310 309 309 308 307 307 306 305 304 302 300 297 294 291 287 284 280 277 273 269 266 262 259 257 255 254 254 254 255 256 257 258 260 261 262 263
294 295 295 296 296 297 298 298 299 299 300 300 301 302 302 303 303 304 305 305 306 307 307 308 309 309 310 311 312 313 313 314 315 315 315 316 316 316 316 316 316 316 316 316 315 314 313 312 311 310 309 308 308 307 306 306 305 304 303 301 298 296 293 289 286 282 278 275 271 267 263 260 257 255 254 253 253 254 255 255 257 258 259 261 262 263
294 294 295 295 296 297 297 298 298 299 299 300 301 301 302 302 303 304 304 305 306 306 307 308 309 309 310 311 312 312 313 314 314 315 315 315 315 315 315 316 316 315 315 315 314 313 312 310 309 308 308 307 307 306 306 305 304 303 302 299 297 294 291 287 284 280 276 272 268 265 261 258 255 254 253 252 253 253 254 255 256 257 259 260 261 263
294 294 295 295 296 296 297 298 298 299 299 300 300 301 301 302 303 303 304 305 305 306 307 308 308 309 310 311 311 312 313 313 314 314 314 315 315 315 315 315 315 315 314 313 313 311 310 309 308 307 307 306 306 305 304 304 303 302 300 298 296 292 289 285 282 278 274 270 266 262 259 256 254 253 252 252 252 252 253 254 255 257 258 259 261 262
293 294 294 295 295 296 297 297 298 298 299 299 300 301 301 302 302 303 304 304 305 306 307 307 308 309 310 310 311 312 312 313 313 314 314 314 314 314 314 314 314 313 313 312 311 310 308 307 307 306 305 305 304 304 303 303 302 301 299 297 294 291 287 283 279 275 272 268 264 260 257 255 253 252 252 251 251 252 253 254 254 256 257 258 260 261
293 293 294 294 295 295 296 297 297 298 298 299 300 300 301 301 302 303 303 304 305 306 307 307 308 309 310 310 311 311 312 312 313 313 313 313 313 313 313 313 313 312 312 311 310 308 307 306 305 305 305 304 303 303 302 301 300 299 297 295 292 288 285 281 277 273 269 266 262 259 256 254 252 251 251 251 251 251 252 253 254 255 256 257 259 260
292 293 293 294 294 295 296 296 297 297 298 299 299 300 301 301 302 303 303 304 305 306 307 307 308 309 309 310 310 311 311 312 312 312 312 312 312 312 312 312 312 311 310 309 308 307 305 305 304 304 304 303 302 301 301 300 299 297 295 293 290 286 283 279 275 271 268 264 261 258 255 253 252 251 251 250 251 251 251 252 253 254 255 256 257 259
292 292 293 293 294 294 295 296 296 297 298 298 299 300 300 301 302 303 303 304 305 306 306 307 308 308 309 309 310 310 311 311 311 311 311 311 311 311 311 311 311 310 309 308 307 305 304 303 303 303 303 302 301 300 299 298 297 296 294 291 288 285 281 277 274 270 266 263 260 257 255 253 251 251 250 250 250 250 251 251 252 253 254 255 256 257
291 292 292 293 293 294 295 295 296 297 297 298 299 300 300 301 302 303 303 304 305 306 306 307 307 308 309 309 309 310 310 310 310 311 311 310 310 310 310 310 309 308 307 306 305 304 303 302 302 302 302 301 300 299 298 297 296 294 292 289 286 283 280 276 272 269 265 262 259 257 255 253 252 251 250 250 250 250 250 251 251 252 253 254 255 256
291 291 292 293 293 294 295 295 296 297 297 298 299 300 300 301 302 303 303 304 305 305 306 307 307 308 308 308 309 309 309 309 310 310 310 309 309 309 309 308 308 307 306 305 304 303 302 302 301 301 301 300 299 298 297 296 294 293 290 288 285 282 278 275 271 268 264 262 259 257 255 253 252 251 250 250 250 250 250 250 251 251 252 253 254 255
290 291 292 292 293 294 294 295 296 296 297 298 299 300 300 301 302 303 303 304 305 305 306 306 307 307 307 308 308 308 308 309 309 309 309 308 308 308 307 307 306 305 304 303 302 302 301 301 300 300 299 299 298 297 296 294 293 291 289 287 284 281 277 274 271 267 264 261 259 257 255 253 252 251 250 250 250 250 250 250 250 251 251 252 253 254
290 291 292 292 293 294 294 295 296 296 297 298 299 299 300 301 302 302 303 304 304 305 305 306 306 306 307 307 307 308 308 308 308 308 308 307 307 306 306 305 304 304 303 302 301 301 300 300 300 299 298 297 296 295 294 293 291 289 288 285 282 279 276 273 270 267 264 261 259 257 255 254 252 251 251 250 250 250 250 250 250 250 251 252 252 253
290 291 292 292 293 294 294 295 296 296 297 298 299 299 300 301 302 302 303 303 304 304 305 305 305 306 306 306 307 307 307 307 307 307 307 306 306 305 305 304 303 302 301 301 300 299 299 299 299 298 297 296 295 294 293 292 290 288 286 283 281 278 275 272 270 267 264 262 259 257 255 254 253 252 251 250 250 250 250 250 250 250 251 251 252 253
291 291 292 292 293 294 294 295 296 297 297 298 299 299 300 301 301 302 302 303 303 304 304 304 305 305 305 306 306 306 306 306 306 306 305 305 304 304 303 302 301 301 300 300 299 299 298 298 298 297 296 295 294 293 292 290 289 286 284 282 279 277 274 271 269 266 264 262 260 258 256 254 253 252 251 250 250 250 250 250 250 250 250 251 252 252
291 291 292 292 293 294 294 295 296 297 297 298 299 299 300 300 301 301 302 302 303 303 303 304 304 304 304 304 305 305 305 305 305 305 304 304 303 302 302 301 300 299 299 299 298 298 298 297 297 296 295 294 293 292 291 289 287 285 282 280 277 275 273 270 268 266 264 262 260 258 257 255 254 253 252 251 250 250 250 250 250 250 250 251 251 252
291 291 292 292 293 294 294 295 296 297 297 298 298 299 300 300 301 301 301 302 302 302 303 303 303 303 303 303 303 303 303 303 304 303 303 303 302 301 300 299 299 298 298 298 298 297 297 296 296 295 294 293 292 291 289 288 286 284 281 278 276 273 271 269 267 265 264 262 261 259 257 256 255 254 252 251 251 250 250 250 250 250 250 251 251 251
291 291 292 293 293 294 294 295 296 296 297 298 298 299 299 300 300 300 301 301 301 302 302 302 302 302 302 302 302 302 302 302 302 302 302 301 301 300 299 298 298 298 297 297 297 297 296 296 295 294 293 292 291 290 289 287 285 283 280 277 275 272 270 268 266 264 263 262 260 259 258 257 255 254 253 252 252 251 251 250 250 250 250 250 251 251
291 291 292 293 293 294 294 295 296 296 297 297 298 298 299 299 300 300 300 300 301 301 301 301 301 301 301 301 301 301 301 301 301 301 300 300 299 299 298 298 297 297 297 296 296 296 295 295 294 293 292 290 289 289 288 286 284 282 279 277 274 271 269 267 265 264 262 261 260 259 258 257 256 255 254 253 252 252 251 251 250 250 250 250 251 251
291 291 292 293 293 294 294 295 295 296 296 297 297 298 298 299 299 299 300 300 300 300 300 300 300 300 300 300 300 300 300 300 300 300 299 298 298 297 297 297 296 296 296 295 295 295 294 294 293 292 291 290 288 287 286 285 283 281 279 277 274 271 269 267 265 263 262 261 260 259 258 258 257 256 255 254 253 252 252 251 251 251 251 251 251 251
291 291 292 292 293 294 294 295 295 296 296 296 297 297 298 298 298 299 299 299 299 299 299 299 299 299 299 299 299 299 299 299 299 298 298 297 297 296 296 296 296 295 295 294 294 293 293 292 292 291 290 289 287 286 285 284 282 281 279 277 274 271 269 267 265 263 261 260 259 258 258 257 257 256 255 255 254 253 252 252 251 251 251 251 251 251
291 291 292 292 293 293 294 294 295 295 295 296 296 296 297 297 298 298 298 298 298 298 298 298 298 298 298 298 298 298 298 298 298 297 296 296 295 295 295 295 295 294 294 293 293 292 292 291 290 289 289 287 286 285 284 283 281 280 278 276 274 271 269 267 265 263 261 260 259 258 257 256 256 256 255 255 254 253 253 252 252 252 251 251 251 251
291 291 292 292 293 293 293 294 294 294 295 295 295 296 296 296 297 297 297 297 297 297 297 297 297 297 298 298 297 297 297 297 296 296 295 295 294 294 294 294 294 293 293 292 292 291 290 290 289 288 287 286 285 284 283 281 280 279 278 276 274 272 270 268 266 264 262 260 259 257 256 256 255 255 255 255 254 254 253 253 252 252 252 252 251 251
291 291 291 292 292 293 293 293 294 294 294 294 295 295 295 296 296 296 296 296 296 296 296 296 296 296 297 297 296 296 296 295 295 295 294 294 294 293 293 293 292 292 291 291 290 289 289 288 287 287 286 285 284 283 282 281 279 278 277 275 274 273 271 268 266 265 263 261 260 258 257 256 255 254 254 254 254 254 254 253 253 253 252 252 252 252
290 291 291 291 292 292 292 292 293 293 293 294 294 294 295 295 295 295 295 295 295 295 295 295 295 295 295 295 295 295 294 294 294 294 293 293 293 292 292 292 291 290 290 289 289 288 287 287 286 285 284 284 283 282 281 280 279 278 276 275 274 272 271 269 267 265 263 262 261 259 257 256 255 255 254 254 254 254 254 253 253 253 253 252 252 252
290 290 290 291 291 291 291 292 292 292 293 293 293 294 294 294 294 294 294 294 294 294 294 295 295 294 294 294 294 294 293 293 293 293 293 292 292 292 291 291 290 289 288 287 287 286 286 285 284 284 283 282 282 281 280 279 278 277 276 275 274 272 271 269 268 266 264 263 261 260 259 257 256 255 255 254 254 253 253 253 253 253 253 253 253 253
289 289 289 290 290 290 291 291 291 292 292 292 293 293 293 293 293 294 294 294 294 294 293 294 293 293 293 293 292 292 292 292 292 292 292 291 291 291 290 290 289 288 287 286 285 285 284 283 283 282 282 281 280 280 279 278 278 277 276 275 274 272 271 269 268 266 264 263 262 260 259 258 257 256 255 254 254 253 253 253 253 253 253 253 253 253
288 288 289 289 289 289 290 290 291 291 291 292 292 292 292 293 293 293 293 293 293 293 293 293 292 292 291 291 291 291 291 291 291 291 291 291 290 290 289 289 288 287 286 285 284 283 282 282 281 281 280 279 279 278 278 277 277 276 275 274 273 272 271 269 268 266 265 263 262 261 260 259 257 256 255 255 254 253 253 253 253 253 253 253 253 253
287 287 288 288 288 289 289 290 290 290 291 291 291 291 292 292 292 292 292 292 292 292 292 291 291 291 290 290 290 290 290 290 290 290 290 290 289 289 288 288 287 286 285 284 284 283 281 280 279 279 278 277 277 277 276 276 275 275 274 274 273 272 271 270 268 267 265 264 263 261 260 259 258 257 256 255 254 254 253 253 253 253 253 253 253 254
286 287 287 287 288 288 288 289 289 290 290 290 291 291 291 291 291 291 291 291 291 291 291 290 290 290 290 290 290 290 290 290 289 289 289 289 288 288 287 287 286 285 285 284 283 282 281 280 278 277 276 276 275 275 275 274 274 273 273 272 272 271 270 269 268 267 266 264 263 262 260 259 258 257 257 256 255 254 253 253 253 253 253 253 253 254
286 286 286 287 287 288 288 288 289 289 289 290 290 290 290 290 290 290 290 290 290 290 290 289 289 289 289 289 289 289 289 289 289 288 288 288 287 287 286 286 285 284 284 283 282 281 280 279 278 276 275 274 274 273 273 272 272 272 272 271 271 270 269 269 268 267 266 265 263 262 261 260 259 258 257 256 256 255 254 253 253 253 253 253 253 254
285 285 286 286 287 287 288 288 288 289 289 289 289 289 289 290 289 289 289 289 289 289 289 289 289 289 289 289 289 289 289 288 288 288 287 287 287 286 286 285 284 284 283 282 281 280 279 278 277 276 275 274 273 272 271 271 270 270 269 269 269 269 268 268 267 266 266 264 263 262 261 260 259 258 257 257 256 255 255 254 253 253 253 253 253 254
285 285 286 286 286 287 287 287 288 288 288 288 288 289 289 289 289 288 288 288 288 288 288 288 288 288 288 288 288 288 288 288 287 287 287 286 286 286 285 284 284 283 282 282 281 279 278 278 277 276 275 274 272 271 270 269 269 268 268 267 267 267 267 267 266 266 265 264 263 262 261 260 259 258 257 257 256 256 255 255 254 254 254 253 253 254
Height
10619 10616 10614 10613 10611 10609 10607 10605 10605 10603 10600 10598 10597 10595 10592 10590 10588 10586 10585 10584 10582 10580 10577 10575 10573 10570 10569 10566 10564 10562 10559 10556 10554 10550 10548 10545 10542 10539 10535 10532 10528 10524 10520 10517 10512 10508 10504 10499 10495 10490 10486 10482 10479 10475 10471 10467 10464 10461 10459 10456 10454 10451 10449 10447 10445 10444 10442 10440 10440 10439 10438 10437 10437 10436 10436 10435 10435 10435 10436 10436 10436 10436 10436 10437 10437 10437
10613 10610 10608 10607 10605 10604 10602 10600 10599 10598 10596 10594 10592 10590 10588 10586 10584 10581 10580 10578 10577 10575 10573 10571 10569 10566 10564 10562 10560 10557 10554 10552 10549 10546 10543 10540 10537 10534 10530 10526 10522 10519 10515 10511 10507 10502 10498 10494 10489 10485 10481 10477 10474 10470 10466 10462 10459 10456 10454 10451 10449 10447 10445 10443 10441 10439 10438 10437 10436 10435 10434 10434 10433 10433 10433 10433 10433 10433 10433 10433 10433 10433 10434 10434 10434 10435
10608 10605 10602 10600 10600 10599 10597 10595 10594 10592 10591 10590 10588 10585 10584 10582 10579 10577 10575 10574 10572 10570 10568 10566 10564 10562 10560 10557 10555 10553 10550 10547 10544 10541 10538 10535 10532 10529 10525 10521 10517 10513 10509 10505 10501 10497 10492 10488 10484 10480 10475 10472 10468 10465 10461 10457 10454 10451 10449 10446 10444 10442 10440 10439 10437 10435 10434 10433 10432 10431 10430 10430 10430 10430 10430 10430 10430 10430 10430 10430 10430 10430 10431 10431 10432 10432
10603 10601 10597 10595 10594 10593 10592 10590 10589 10587 10586 10584 10583 10580 10579 10577 10574 10572 10570 10569 10567 10565 10563 10561 10559 10557 10555 10553 10550 10548 10545 10542 10539 10536 10533 10530 10527 10523 10519 10515 10512 10508 10504 10500 10495 10491 10487 10482 10479 10474 10470 10467 10464 10460 10456 10453 10450 10447 10444 10442 10440 10438 10436 10435 10434 10432 10431 10430 10429 10428 10427 10427 10427 10427 10427 10427 10427 10427 10427 10427 10428 10428 10429 10429 10429 10430
10598 10596 10594 10591 10589 10587 10586 10585 10584 10582 10580 10579 10577 10575 10574 10572 10569 10567 10565 10564 10562 10560 10558 10557 10555 10553 10550 10548 10545 10542 10540 10537 10534 10531 10528 10524 10521 10517 10514 10510 10506 10502 10498 10494 10490 10485 10481 10477 10473 10469 10465 10462 10459 10455 10452 10449 10445 10442 10440 10438 10435 10434 10432 10431 10430 10429 10427 10426 10425 10425 10424 10424 10424 10424 10424 10424 10424 10425 10425 10425 10425 10425 10426 10427 10427 10427
10592 10591 10589 10587 10585 10582 10581 10580 10579 10577 10575 10573 10571 10570 10569 10567 10565 10562 10560 10559 10557 10555 10553 10551 10550 10548 10546 10544 10540 10537 10534 10531 10529 10526 10522 10519 10515 10512 10508 10504 10500 10496 10492 10488 10484 10480 10476 10472 10467 10464 10460 10457 10454 10450 10447 10444 10441 10439 10436 10434 10432 10430 10429 10427 10426 10425 10424 10424 10422 10422 10422 10421 10421 10421 10421 10421 10422 10422 10422 10422 10423 10423 10424 10424 10425 10425
10586 10585 10584 10582 10580 10577 10575 10574 10573 10572 10570 10568 10565 10564 10562 10560 10559 10558 10556 10554 10552 10550 10548 10545 10544 10542 10540 10539 10535 10532 10529 10526 10523 10520 10517 10514 10510 10506 10502 10499 10494 10490 10487 10482 10479 10474 10470 10466 10462 10459 10455 10452 10449 10446 10443 10440 10437 10435 10432 10430 10429 10427 10425 10424 10422 10422 10421 10420 10419 10419 10419 10419 10418 10418 10419 10419 10419 10419 10420 10420 10420 10421 10422 10422 10422 10423
10580 10579 10577 10576 10574 10572 10570 10568 10567 10566 10565 10564 10560 10558 10556 10554 10552 10551 10550 10549 10547 10545 10544 10540 10538 10535 10534 10532 10530 10527 10524 10521 10518 10515 10511 10507 10504 10500 10496 10492 10489 10485 10481 10477 10473 10469 10465 10461 10457 10454 10450 10447 10444 10441 10439 10436 10434 10431 10429 10427 10425 10423 10422 10420 10419 10419 10418 10417 10417 10416 10415 10415 10415 10415 10416 10416 10417 10417 10417 10418 10418 10419 10419 10420 10420 10421
10575 10574 10572 10570 10569 10567 10565 10562 10560 10559 10559 10558 10556 10554 10552 10549 10547 10544 10542 10542 10541 10540 10539 10537 10534 10530 10528 10525 10524 10522 10519 10516 10513 10509 10506 10502 10499 10494 10490 10487 10483 10479 10475 10471 10467 10464 10460 10456 10452 10449 10445 10442 10439 10437 10434 10432 10430 10427 10425 10423 10422 10420 10419 10417 10416 10415 10415 10414 10414 10414 10413 10413 10413 10413 10413 10414 10414 10414 10415 10415 10416 10417 10417 10417 10418 10419
10569 10568 10566 10564 10562 10561 10560 10557 10555 10554 10553 10552 10550 10549 10547 10545 10543 10540 10537 10534 10533 10533 10533 10531 10529 10525 10523 10520 10517 10515 10512 10510 10507 10504 10500 10497 10493 10489 10485 10481 10477 10474 10470 10466 10462 10459 10455 10451 10447 10444 10441 10438 10435 10433 10430 10429 10426 10424 10422 10420 10418 10417 10415 10414 10414 10412 10412 10412 10411 10410 10410 10410 10410 10410 10411 10411 10412 10412 10413 10413 10414 10414 10415 10415 10416 10417
10563 10562 10560 10559 10557 10555 10554 10552 10550 10549 10547 10546 10544 10542 10540 10539 10539 10537 10534 10530 10527 10526 10525 10524 10522 10520 10517 10515 10512 10509 10506 10503 10500 10497 10494 10490 10487 10483 10479 10475 10472 10468 10465 10461 10457 10454 10450 10446 10443 10440 10437 10434 10432 10429 10427 10425 10422 10420 10418 10417 10415 10414 10412 10412 10410 10410 10409 10409 10409 10408 10408 10408 10408 10409 10409 10409 10409 10410 10410 10411 10412 10412 10413 10414 10414 10415
10557 10556 10554 10553 10551 10549 10547 10546 10544 10543 10542 10540 10539 10537 10534 10532 10532 10530 10529 10525 10522 10520 10519 10517 10515 10513 10511 10509 10507 10504 10500 10497 10494 10491 10489 10485 10481 10477 10474 10470 10466 10462 10459 10455 10452 10449 10445 10442 10438 10435 10432 10430 10427 10425 10423 10421 10419 10417 10415 10414 10412 10411 10410 10409 10408 10407 10407 10406 10406 10405 10405 10405 10406 10406 10407 10407 10407 10408 10409 10409 10410 10410 10411 10412 10412 10413
10552 10550 10549 10547 10545 10544 10542 10540 10539 10537 10535 10534 10534 10532 10529 10527 10525 10524 10522 10520 10517 10515 10514 10512 10509 10506 10504 10502 10500 10498 10494 10491 10488 10485 10482 10479 10475 10472 10469 10465 10460 10457 10454 10450 10447 10444 10440 10437 10434 10430 10428 10425 10423 10421 10419 10417 10415 10414 10412 10410 10409 10408 10407 10406 10405 10404 10404 10404 10404 10404 10404 10404 10404 10404 10404 10405 10405 10405 10406 10407 10407 10409 10409 10410 10410 10411
10545 10544 10543 10540 10539 10537 10536 10535 10534 10531 10530 10529 10527 10526 10524 10522 10520 10518 10516 10514 10511 10509 10507 10505 10502 10500 10498 10496 10495 10492 10489 10485 10482 10479 10476 10473 10470 10467 10464 10459 10455 10452 10449 10445 10442 10439 10436 10433 10430 10427 10424 10422 10420 10418 10416 10414 10412 10410 10409 10407 10406 10405 10404 10403 10402 10402 10401 10401 10401 10401 10401 10401 10402 10402 10402 10402 10403 10404 10404 10405 10405 10406 10407 10407 10408 10409
10540 10539 10537 10535 10532 10531 10530 10529 10527 10525 10524 10522 10521 10520 10518 10516 10514 10511 10510 10507 10505 10503 10501 10499 10496 10493 10490 10489 10488 10487 10484 10480 10476 10472 10470 10467 10464 10461 10458 10454 10450 10447 10444 10441 10437 10434 10431 10429 10425 10423 10420 10418 10416 10414 10413 10411 10409 10407 10405 10404 10403 10402 10401 10400 10400 10399 10399 10399 10399 10399 10399 10399 10399 10400 10400 10400 10401 10402 10402 10403 10404 10404 10405 10405 10406 10407
10534 10533 10531 10529 10527 10525 10524 10523 10522 10520 10518 10516 10515 10514 10512 10510 10507 10505 10504 10501 10499 10497 10495 10492 10490 10487 10484 10482 10480 10479 10478 10475 10471 10467 10464 10461 10458 10455 10453 10449 10445 10442 10439 10436 10433 10430 10427 10424 10421 10419 10417 10414 10412 10410 10409 10407 10405 10404 10402 10401 10400 10399 10399 10398 10397 10397 10397 10396 10397 10397 10397 10397 10397 10397 10398 10399 10399 10400 10400 10401 10402 10402 10403 10404 10404 10405
10528 10527 10525 10523 10521 10519 10517 10516 10515 10514 10512 10510 10509 10507 10505 10504 10502 10500 10498 10495 10493 10491 10489 10486 10484 10482 10479 10477 10474 10472 10471 10469 10465 10461 10458 10455 10452 10450 10447 10444 10440 10437 10434 10431 10428 10425 10423 10420 10417 10415 10412 10410 10409 10407 10405 10404 10402 10401 10399 10398 10397 10397 10396 10395 10395 10394 10394 10394 10394 10394 10395 10395 10395 10395 10396 10397 10397 10398 10399 10399 10400 10400 10401 10402 10402 10403
10522 10520 10519 10517 10515 10513 10511 10510 10509 10507 10506 10504 10502 10500 10499 10497 10495 10494 10492 10489 10487 10485 10483 10480 10478 10476 10474 10471 10469 10466 10465 10463 10459 10455 10452 10450 10447 10444 10442 10439 10435 10432 10429 10427 10424 10422 10419 10416 10414 10411 10409 10407 10405 10404 10402 10400 10399 10398 10397 10395 10394 10394 10393 10393 10392 10392 10392 10392 10392 10392 10392 10393 10393 10394 10394 10395 10395 10396 10397 10397 10398 10399 10399 10400 10400 10401
10515 10514 10512 10511 10509 10507 10505 10504 10502 10502 10500 10498 10496 10494 10492 10490 10489 10487 10485 10483 10481 10479 10477 10475 10472 10470 10468 10466 10464 10461 10459 10457 10454 10450 10447 10444 10441 10439 10437 10434 10430 10427 10425 10422 10420 10418 10415 10412 10410 10407 10405 10404 10402 10400 10399 10397 10396 10395 10394 10392 10392 10391 10390 10390 10390 10390 10390 10390 10390 10390 10390 10390 10391 10392 10392 10393 10394 10394 10395 10395 10396 10397 10397 10398 10399 10399
10509 10507 10505 10505 10504 10502 10499 10497 10495 10495 10494 10492 10490 10488 10485 10484 10482 10480 10479 10477 10475 10474 10471 10469 10467 10465 10462 10460 10457 10455 10454 10452 10449 10445 10442 10439 10436 10434 10432 10429 10426 10423 10420 10418 10416 10414 10411 10409 10406 10404 10402 10400 10398 10397 10395 10394 10392 10392 10390 10390 10389 10389 10388 10388 10387 10387 10387 10387 10387 10388 10388 10389 10389 10390 10390 10391 10392 10392 10393 10394 10394 10395 10395 10396 10397 10397
10503 10501 10499 10498 10497 10496 10494 10492 10490 10489 10487 10486 10484 10482 10479 10477 10475 10474 10472 10470 10469 10467 10465 10463 10461 10459 10457 10455 10452 10450 10448 10446 10444 10440 10436 10434 10430 10429 10427 10425 10422 10419 10415 10413 10411 10409 10407 10405 10402 10400 10399 10397 10395 10393 10392 10390 10389 10389 10388 10387 10386 10385 10385 10385 10385 10385 10385 10385 10385 10385 10386 10387 10387 10388 10389 10389 10390 10390 10391 10392 10392 10393 10394 10394 10394 10395
10497 10495 10493 10492 10491 10490 10488 10486 10484 10483 10482 10480 10479 10476 10474 10472 10470 10468 10466 10464 10462 10460 10459 10457 10455 10454 10452 10450 10447 10445 10442 10440 10438 10435 10432 10428 10425 10423 10422 10420 10417 10414 10412 10409 10407 10405 10403 10401 10399 10397 10395 10393 10392 10390 10389 10387 10386 10385 10385 10384 10384 10383 10383 10383 10383 10383 10383 10383 10384 10384 10384 10384 10385 10385 10386 10387 10388 10389 10389 10390 10390 10391 10392 10392 10392 10393
10492 10490 10488 10486 10485 10484 10482 10480 10479 10477 10475 10474 10472 10470 10469 10467 10465 10463 10461 10459 10457 10455 10454 10451 10449 10447 10445 10444 10441 10439 10437 10435 10432 10429 10426 10423 10420 10418 10417 10415 10412 10410 10407 10405 10403 10400 10399 10397 10395 10394 10392 10390 10389 10387 10385 10384 10383 10382 10382 10381 10381 10380 10380 10380 10380 10380 10381 10381 10381 10382 10382 10382 10383 10384 10384 10385 10385 10387 10387 10388 10389 10389 10389 10390 10390 10390
10485 10484 10482 10480 10479 10477 10476 10474 10473 10471 10470 10468 10466 10464 10462 10461 10459 10457 10455 10453 10452 10450 10448 10445 10444 10441 10439 10437 10435 10433 10430 10429 10427 10424 10421 10418 10415 10413 10412 10410 10408 10405 10403 10401 10399 10397 10395 10393 10392 10390 10389 10387 10385 10384 10382 10381 10380 10380 10379 10379 10378 10378 10378 10378 10378 10379 10379 10379 10379 10380 10380 10380 10381 10382 10382 10383 10384 10384 10385 10385 10386 10387 10387 10388 10388 10389
10479 10478 10476 10475 10473 10472 10470 10469 10467 10465 10464 10462 10460 10459 10457 10455 10453 10450 10449 10447 10445 10444 10442 10439 10437 10435 10434 10432 10430 10427 10425 10423 10421 10419 10416 10413 10410 10408 10406 10405 10404 10401 10399 10397 10395 10393 10391 10389 10388 10387 10385 10384 10382 10381 10379 10379 10377 10377 10376 10376 10375 10375 10375 10375 10375 10376 10376 10377 10377 10377 10378 10379 10379 10380 10380 10381 10382 10382 10383 10384 10384 10385 10385 10385 10386 10387
10474 10472 10470 10469 10467 10465 10464 10463 10461 10460 10458 10456 10455 10453 10451 10449 10447 10445 10442 10440 10439 10437 10436 10434 10431 10429 10427 10425 10424 10422 10419 10417 10415 10413 10411 10408 10405 10402 10401 10400 10399 10397 10395 10392 10391 10389 10387 10385 10384 10383 10382 10380 10379 10378 10377 10375 10375 10374 10374 10373 10373 10373 10373 10373 10374 10374 10374 10374 10375 10375 10375 10376 10377 10377 10378 10379 10379 10380 10380 10382 10382 10382 10383 10384 10384 10384
10467 10466 10464 10463 10461 10460 10458 10457 10455 10454 10452 10450 10449 10447 10445 10444 10441 10439 10436 10434 10432 10431 10430 10427 10425 10423 10422 10420 10418 10416 10414 10412 10410 10408 10406 10404 10400 10398 10397 10395 10395 10393 10390 10389 10387 10385 10384 10382 10380 10380 10379 10377 10376 10375 10374 10372 10372 10371 10371 10370 10370 10370 10370 10370 10371 10371 10372 10372 10372 10373 10374 10374 10375 10375 10376 10377 10377 10378 10379 10379 10380 10380 10381 10382 10382 10382
10462 10460 10459 10457 10455 10454 10452 10450 10449 10447 10446 10444 10442 10441 10439 10437 10435 10434 10430 10429 10427 10425 10423 10421 10419 10417 10415 10414 10412 10410 10409 10407 10405 10403 10401 10399 10395 10394 10392 10391 10390 10388 10386 10384 10382 10381 10380 10379 10377 10376 10375 10374 10372 10371 10370 10370 10369 10369 10368 10368 10368 10368 10368 10368 10369 10369 10369 10370 10370 10370 10371 10372 10372 10373 10374 10374 10375 10375 10376 10377 10377 10378 10379 10379 10380 10380
10455 10454 10452 10451 10449 10448 10447 10445 10443 10441 10439 10438 10437 10435 10433 10431 10430 10427 10425 10423 10421 10419 10417 10415 10413 10411 10409 10407 10405 10404 10402 10401 10400 10398 10396 10394 10391 10389 10388 10387 10385 10384 10382 10380 10379 10377 10376 10375 10374 10373 10372 10370 10369 10368 10367 10367 10366 10365 10365 10365 10365 10365 10365 10365 10366 10366 10367 10367 10368 10368 10369 10369 10370 10370 10371 10372 10372 10373 10374 10374 10375 10375 10376 10377 10377 10378
10449 10448 10446 10445 10443 10442 10440 10439 10437 10435 10434 10432 10430 10429 10427 10425 10424 10422 10420 10417 10415 10414 10411 10409 10407 10405 10403 10401 10399 10397 10395 10395 10394 10394 10392 10389 10386 10384 10384 10382 10380 10379 10378 10377 10374 10373 10372 10371 10370 10370 10369 10367 10366 10365 10364 10364 10363 10362 10362 10362 10362 10362 10362 10363 10363 10364 10364 10365 10365 10365 10366 10367 10367 10368 10369 10369 10370 10370 10371 10372 10372 10373 10374 10374 10375 10375
10442 10441 10440 10439 10437 10435 10434 10432 10430 10429 10427 10425 10424 10422 10421 10419 10417 10415 10414 10412 10409 10407 10405 10403 10400 10399 10397 10395 10394 10392 10389 10389 10389 10388 10387 10384 10382 10380 10379 10377 10376 10375 10374 10373 10371 10369 10368 10367 10367 10366 10365 10364 10362 10362 10361 10360 10360 10360 10359 10359 10359 10359 10360 10360 10360 10361 10362 10362 10362 10363 10364 10364 10365 10365 10366 10367 10367 10368 10369 10369 10370 10370 10371 10372 10372 10373
10436 10435 10434 10432 10430 10429 10427 10425 10424 10422 10420 10419 10417 10416 10414 10413 10411 10409 10407 10405 10404 10402 10399 10397 10394 10392 10390 10389 10388 10386 10384 10383 10382 10382 10381 10379 10377 10375 10374 10373 10371 10370 10369 10369 10367 10366 10364 10363 10362 10362 10362 10360 10359 10359 10358 10357 10357 10357 10357 10357 10357 10357 10357 10357 10358 10359 10359 10359 10360 10360 10361 10362 10362 10363 10364 10364 10365 10365 10366 10367 10367 10368 10369 10369 10370 10370
10429 10428 10427 10425 10424 10422 10420 10419 10417 10416 10414 10413 10411 10410 10408 10407 10405 10403 10401 10399 10397 10395 10393 10391 10389 10387 10385 10383 10382 10380 10379 10377 10377 10376 10375 10374 10372 10370 10369 10368 10367 10365 10365 10364 10363 10362 10361 10360 10359 10359 10357 10357 10356 10355 10355 10354 10354 10354 10354 10354 10354 10354 10354 10354 10355 10355 10356 10357 10357 10358 10359 10359 10360 10360 10361 10362 10362 10363 10364 10364 10365 10365 10366 10367 10367 10367
10422 10421 10419 10418 10417 10415 10414 10412 10410 10409 10408 10406 10405 10403 10402 10400 10398 10396 10394 10393 10391 10389 10387 10385 10383 10381 10379 10377 10376 10374 10373 10372 10371 10370 10370 10369 10367 10365 10364 10363 10362 10361 10360 10359 10359 10358 10357 10356 10355 10355 10354 10353 10352 10352 10352 10351 10351 10350 10350 10350 10350 10350 10351 10351 10352 10352 10353 10354 10354 10355 10355 10356 10357 10357 10358 10359 10359 10360 10360 10361 10362 10362 10363 10364 10364 10365
10415 10414 10412 10411 10410 10409 10407 10405 10404 10402 10401 10400 10398 10397 10395 10393 10392 10390 10388 10386 10384 10382 10380 10379 10377 10376 10374 10372 10371 10369 10367 10367 10366 10365 10364 10363 10362 10360 10359 10358 10357 10357 10355 10355 10354 10354 10353 10352 10352 10351 10350 10349 10349 10349 10349 10348 10348 10347 10347 10347 10347 10347 10347 10348 10349 10349 10350 10350 10352 10352 10353 10354 10354 10355 10355 10356 10357 10357 10358 10358 10359 10359 10360 10360 10361 10362
10409 10407 10405 10404 10403 10402 10400 10399 10397 10395 10394 10393 10391 10390 10388 10387 10385 10383 10381 10379 10378 10376 10374 10372 10371 10370 10369 10367 10366 10364 10363 10362 10361 10360 10359 10358 10357 10355 10354 10353 10353 10352 10351 10350 10349 10349 10349 10348 10348 10347 10347 10346 10345 10345 10345 10345 10344 10344 10344 10344 10344 10344 10344 10345 10345 10346 10347 10347 10348 10349 10350 10350 10351 10352 10352 10353 10354 10354 10355 10355 10355 10356 10357 10357 10358 10359
10402 10400 10399 10397 10396 10395 10394 10392 10390 10389 10387 10386 10384 10382 10381 10379 10378 10376 10374 10373 10371 10369 10368 10366 10365 10364 10362 10361 10360 10359 10358 10357 10356 10355 10354 10352 10352 10350 10350 10349 10348 10347 10347 10345 10345 10344 10344 10344 10344 10343 10343 10342 10342 10341 10341 10341 10340 10340 10340 10340 10340 10340 10340 10341 10342 10342 10343 10344 10345 10345 10346 10347 10348 10349 10349 10350 10350 10351 10352 10352 10352 10353 10354 10354 10355 10355
10395 10393 10392 10390 10389 10387 10386 10385 10384 10382 10380 10379 10377 10375 10374 10372 10371 10369 10368 10366 10364 10363 10361 10360 10358 10357 10356 10355 10354 10354 10352 10352 10351 10350 10349 10348 10347 10346 10345 10344 10343 10342 10342 10342 10340 10340 10340 10339 10339 10339 10339 10339 10338 10338 10337 10337 10337 10337 10336 10337 10337 10337 10337 10337 10338 10339 10340 10340 10341 10342 10343 10344 10344 10345 10346 10347 10347 10348 10348 10349 10349 10350 10350 10351 10351 10352
10387 10386 10384 10383 10381 10380 10379 10378 10376 10375 10374 10372 10370 10369 10367 10366 10364 10363 10361 10360 10358 10357 10355 10354 10352 10350 10350 10349 10348 10347 10347 10346 10345 10345 10344 10343 10342 10341 10340 10339 10339 10338 10337 10337 10337 10336 10335 10335 10335 10335 10334 10334 10334 10334 10334 10334 10333 10333 10333 10333 10333 10333 10334 10334 10335 10335 10336 10337 10337 10338 10339 10340 10340 10342 10342 10343 10344 10344 10345 10345 10346 10347 10347 10347 10348 10349
10380 10379 10377 10375 10374 10373 10372 10370 10369 10368 10366 10365 10364 10362 10360 10359 10358 10356 10355 10354 10352 10350 10349 10347 10346 10345 10344 10343 10342 10341 10340 10340 10340 10339 10339 10338 10337 10337 10335 10335 10334 10333 10332 10332 10332 10332 10331 10330 10330 10330 10330 10330 10330 10330 10330 10330 10330 10329 10329 10329 10329 10329 10330 10330 10331 10332 10332 10333 10334 10334 10335 10336 10337 10338 10339 10339 10340 10340 10341 10342 10342 10343 10344 10344 10344 10345
10372 10371 10369 10368 10367 10365 10364 10363 10362 10360 10359 10358 10357 10355 10354 10353 10352 10350 10349 10347 10345 10344 10342 10341 10340 10339 10337 10337 10336 10335 10335 10334 10334 10334 10333 10333 10332 10332 10331 10330 10329 10329 10328 10327 10327 10327 10327 10326 10326 10326 10326 10326 10326 10326 10325 10325 10326 10326 10326 10325 10325 10325 10326 10327 10327 10327 10328 10329 10329 10330 10331 10332 10332 10334 10334 10335 10336 10337 10337 10338 10339 10339 10340 10340 10340 10341
10365 10363 10362 10360 10359 10358 10357 10355 10354 10353 10352 10351 10350 10349 10347 10346 10345 10344 10342 10341 10339 10338 10337 10335 10334 10333 10332 10330 10330 10330 10329 10329 10328 10327 10327 10327 10327 10327 10326 10325 10325 10324 10324 10323 10322 10322 10322 10322 10322 10322 10322 10322 10322 10322 10322 10322 10322 10322 10322 10322 10322 10322 10322 10322 10323 10324 10324 10325 10325 10326 10327 10327 10328 10329 10330 10330 10332 10332 10333 10334 10335 10335 10336 10336 10337 10337
10357 10355 10354 10353 10352 10350 10349 10348 10347 10346 10345 10344 10343 10342 10341 10340 10339 10338 10337 10335 10333 10332 10330 10329 10329 10327 10326 10325 10324 10324 10324 10323 10322 10322 10322 10322 10322 10322 10321 10320 10320 10320 10319 10319 10317 10317 10317 10317 10317 10317 10317 10317 10317 10317 10317 10317 10318 10318 10318 10319 10319 10319 10318 10319 10319 10320 10320 10320 10321 10322 10322 10323 10324 10325 10325 10326 10327 10328 10329 10330 10330 10331 10332 10332 10333 10333
10349 10348 10347 10345 10344 10343 10342 10340 10339 10339 10338 10337 10336 10335 10334 10334 10333 10332 10330 10329 10327 10326 10325 10324 10323 10322 10320 10319 10319 10319 10318 10317 10317 10317 10316 10316 10316 10316 10315 10315 10315 10315 10315 10314 10314 10313 10312 10312 10312 10312 10312 10313 10313 10313 10313 10314 10314 10314 10314 10314 10315 10315 10314 10315 10315 10316 10316 10317 10317 10318 10319 10319 10320 10320 10321 10322 10322 10324 10324 10325 10326 10327 10327 10328 10329 10329
10342 10340 10339 10338 10337 10335 10334 10333 10332 10332 10331 10330 10329 10329 10327 10327 10326 10325 10324 10322 10321 10320 10319 10319 10317 10316 10315 10314 10314 10313 10312 10312 10312 10311 10311 10310 10310 10310 10310 10310 10310 10310 10310 10309 10309 10309 10308 10308 10307 10307 10308 10308 10309 10309 10309 10309 10309 10310 10310 10310 10310 10310 10310 10311 10311 10312 10312 10312 10313 10314 10314 10315 10315 10316 10317 10317 10318 10319 10320 10320 10322 10322 10323 10324 10325 10325
10335 10334 10332 10331 10330 10329 10327 10327 10325 10325 10324 10323 10322 10322 10321 10320 10319 10319 10317 10316 10315 10314 10313 10313 10312 10311 10310 10309 10309 10308 10307 10307 10306 10305 10305 10305 10305 10305 10305 10305 10304 10304 10304 10304 10304 10304 10304 10304 10304 10303 10304 10304 10304 10304 10304 10305 10305 10305 10305 10306 10306 10307 10307 10307 10307 10307 10308 10308 10309 10309 10310 10310 10311 10312 10312 10312 10313 10314 10315 10316 10317 10318 10319 10320 10320 10321
10327 10326 10325 10324 10323 10322 10320 10320 10319 10318 10317 10316 10315 10315 10314 10314 10313 10312 10310 10310 10309 10308 10307 10307 10306 10305 10304 10304 10303 10302 10302 10301 10300 10300 10300 10300 10300 10299 10299 10299 10299 10299 10299 10299 10299 10299 10299 10299 10299 10299 10299 10299 10299 10299 10299 10300 10300 10300 10301 10301 10302 10302 10302 10302 10303 10304 10304 10304 10304 10305 10305 10306 10307 10307 10307 10308 10309 10309 10310 10311 10312 10313 10314 10315 10316 10317
10320 10319 10318 10317 10316 10315 10314 10313 10312 10312 10310 10310 10309 10308 10307 10307 10307 10305 10304 10304 10302 10302 10301 10300 10300 10300 10299 10299 10298 10297 10297 10296 10295 10295 10294 10294 10294 10294 10294 10294 10294 10294 10294 10294 10294 10294 10294 10294 10294 10294 10294 10294 10294 10294 10295 10295 10296 10296 10296 10297 10297 10297 10297 10298 10299 10299 10299 10300 10300 10300 10301 10302 10302 10302 10302 10304 10304 10305 10305 10306 10307 10309 10309 10310 10311 10312
10314 10312 10312 10310 10309 10309 10307 10307 10306 10305 10304 10303 10302 10302 10301 10300 10300 10299 10298 10297 10297 10296 10295 10295 10294 10294 10294 10293 10292 10292 10292 10290 10290 10289 10289 10289 10289 10289 10289 10289 10289 10289 10289 10289 10289 10289 10289 10289 10289 10289 10290 10290 10290 10290 10290 10290 10291 10291 10292 10292 10292 10292 10292 10293 10294 10294 10295 10295 10295 10296 10297 10297 10297 10298 10299 10299 10299 10300 10300 10302 10302 10304 10305 10306 10307 10307
10306 10305 10305 10304 10303 10302 10301 10300 10300 10299 10297 10297 10296 10295 10294 10294 10294 10293 10292 10292 10290 10290 10290 10289 10289 10289 10288 10287 10287 10287 10286 10285 10285 10284 10284 10284 10284 10283 10283 10283 10283 10284 10283 10283 10283 10283 10283 10283 10283 10284 10284 10285 10285 10285 10285 10285 10286 10287 10287 10287 10287 10287 10288 10288 10289 10289 10290 10290 10291 10291 10292 10292 10293 10294 10294 10294 10294 10295 10295 10297 10297 10299 10300 10301 10302 10303
10299 10299 10298 10297 10297 10295 10295 10294 10293 10292 10291 10290 10290 10289 10288 10288 10287 10287 10286 10285 10285 10284 10284 10284 10283 10283 10282 10282 10281 10281 10280 10280 10279 10279 10278 10278 10278 10278 10277 10277 10278 10278 10278 10278 10278 10278 10278 10278 10277 10278 10279 10280 10281 10281 10281 10281 10281 10281 10282 10282 10282 10283 10283 10283 10284 10284 10285 10285 10286 10287 10287 10287 10288 10289 10289 10289 10290 10290 10290 10292 10292 10294 10295 10296 10297 10298